Flag for Greenland Weather past 2 weeks in Nuuk, Greenland

Now
16 °F

Snow flurries. Passing clouds.


Feels Like: 0 °F
Forecast: 10 / 31 °F
Wind: 16 mph from Northeast

Location: Godthaab / Nuuk


UV Index: 0 (Low)

Visibility: 4 mi


Pressure: 29.77 "Hg

Humidity: 57%

Dew point: 3 °F

Location of NuukLocation

Historic Weather in Nuuk

°F

Nuuk temperature yesterday

Maximum temperature yesterday: 18 °F (at 11:50 AM)
Minimum temperature yesterday: 14 °F (at 12:50 AM)
Average temperature yesterday: 16 °F

Past Weeks' High & Low Weather Summary

 TemperatureHumidityPressure
High43 °F (Apr 10, 5:50 AM)100% (Apr 1, 3:50 AM)30.09 "Hg (Apr 1, 3:50 AM)
Low9 °F (Apr 7, 4:50 AM)30% (Apr 9, 9:50 PM)28.85 "Hg (Apr 10, 12:50 PM)
Average19 °F72%29.71 "Hg
* Reported Apr 1 2:20 AM — Apr 16 2:20 AM, Nuuk, Weather by CustomWeather, © 2014

Note: Actual official high and low records may vary slightly from our data, if they occured in-between our weather recording intervals... More about our weather records

Advertising

Historic Weather Conditions — Data for Previous 24 hours

 ConditionsComfort  
Time TempWeatherWind HumidityBarometerVisibility
2:20 AM
Apr 16
16 °FSnow flurries. Overcast.16 mph62%29.77 "Hg3 mi
1:50 AM16 °FSnow flurries. Passing clouds.14 mph57%29.80 "HgN/A
1:20 AM16 °FPassing clouds.16 mph62%29.80 "HgN/A
12:50 AM18 °FSnow flurries. Passing clouds.15 mph53%29.83 "HgN/A
12:20 AM16 °FSnow flurries. Passing clouds.16 mph57%29.80 "Hg2 mi
11:50 PM
Apr 15
16 °FSnow flurries. Passing clouds.14 mph57%29.83 "HgN/A
11:20 PM18 °FSnow flurries. Passing clouds.15 mph53%29.83 "Hg4 mi
10:50 PM18 °FSnow flurries. Passing clouds.17 mph58%29.83 "Hg5 mi
8:50 PM16 °FPassing clouds.13 mph53%29.86 "HgN/A
8:20 PM16 °FCold.14 mph57%29.86 "HgN/A
7:50 PM16 °FCold.12 mph53%29.86 "HgN/A
5:50 PM16 °FSunny.13 mph57%29.89 "HgN/A
4:50 PM18 °FSunny.12 mph58%29.89 "HgN/A
3:50 PM18 °FPassing clouds.14 mph58%29.92 "HgN/A
2:50 PM18 °FSunny.13 mph49%29.92 "HgN/A
1:50 PM18 °FSunny.10 mph53%29.92 "HgN/A
12:50 PM18 °FPassing clouds.13 mph53%29.95 "HgN/A
11:50 AM18 °FPassing clouds.10 mph53%29.95 "HgN/A
10:50 AM16 °FPassing clouds.12 mph57%29.95 "HgN/A
9:50 AM16 °FPassing clouds.10 mph53%29.98 "HgN/A
8:50 AM14 °FPassing clouds.10 mph52%29.98 "HgN/A
7:50 AM14 °FScattered clouds.8 mph52%29.98 "HgN/A
6:50 AM14 °FPassing clouds.13 mph52%29.98 "HgN/A
5:50 AM14 °FScattered showers. Passing clouds.10 mph57%29.98 "HgN/A
5:20 AM14 °FPassing clouds.14 mph57%29.98 "HgN/A
4:50 AM14 °FPassing clouds.12 mph57%29.98 "HgN/A
4:20 AM14 °FPassing clouds.16 mph57%29.98 "HgN/A
3:50 AM14 °FSnow flurries. Passing clouds.17 mph67%29.98 "Hg6 mi
3:20 AM14 °FLight snow. Overcast.17 mph73%29.98 "Hg1 mi
Weather by CustomWeather, © 2014

See weather overview